Weather History for Monroe, LA

Change the Weather History Date:

Monday, March 25, 2013

  Actual Average Record
Temperature  
Mean Temperature 45 °F 60 °F  
Max Temperature 57 °F 72 °F 89 °F (1935)
Min Temperature 32 °F 48 °F 29 °F (1966)
Degree Days  
Heating Degree Days 20 6  
Month to date heating degree days 298 218  
Since 1 July heating degree days 1960 2112  
Cooling Degree Days 0 1  
Month to date cooling degree days 8 23  
Year to date cooling degree days 21 34  
Moisture  
Dew Point 22 °F    
Average Humidity 50    
Maximum Humidity 75    
Minimum Humidity 24    
Precipitation  
Precipitation 0.00 in 0.15 in 2.17 in (1934)
Month to date precipitation 0.59 3.85  
Year to date precipitation 15.04 13.49  
Snow  
Snow 0.00 in - - ()
Month to date snowfall 0.0  
Since 1 July snowfall 0.3  
Snow Depth 0.00 in    
Sea Level Pressure  
Sea Level Pressure 30.22 in    
Wind  
Wind Speed 13 mph (NW)    
Max Wind Speed 25 mph    
Max Gust Speed 32 mph    
Visibility 10 miles    
Events      
T = Trace of Precipitation, MM = Missing Value Source: NWS Daily Summary

Daily Weather History Graph

Daily Weather History Graph

Search for Another Location

Airport:

Trip Planner

Search our weather history database for the weather conditions in past years. The results will help you decide how hot, cold, wet, or windy it might be!

Date:

Astronomy

Mar. 25, 2013 Rise Set
Actual Time 7:05 AM CDT 7:23 PM CDT
Civil Twilight 6:40 AM CDT 7:48 PM CDT
Nautical Twilight 6:11 AM CDT 8:16 PM CDT
Astronomical Twilight 5:42 AM CDT 8:46 PM CDT
Moon 5:58 PM CDT (3/25) 5:44 AM CDT (3/25)
Length of Visible Light 13h 07m
Length of Day
12h 18m
Waxing Gibbous, 96% of the Moon is Illuminated
Mar 25
Waxing Gibbous
Mar 27
Full
Apr 2
Last Quarter
Apr 10
New
Apr 18
First Quarter

Hourly Weather History & Observations

Time (CDT) Temp. Windchill Dew Point Humidity Pressure Visibility Wind Dir Wind Speed Gust Speed Precip Events Conditions
12:53 AM 37.4 °F 30.3 °F 28.4 °F 70% 30.13 in 10.0 mi NW 10.4 mph - N/A   Clear
1:53 AM 35.1 °F 28.6 °F 27.0 °F 72% 30.13 in 10.0 mi NNW 8.1 mph - N/A   Clear
2:53 AM 34.0 °F 28.0 °F 27.0 °F 75% 30.13 in 10.0 mi NNW 6.9 mph - N/A   Clear
3:53 AM 34.0 °F 26.0 °F 26.1 °F 73% 30.14 in 10.0 mi NW 10.4 mph - N/A   Clear
4:53 AM 33.1 °F 25.5 °F 25.0 °F 72% 30.16 in 10.0 mi NW 9.2 mph - N/A   Clear
5:53 AM 32.0 °F 24.8 °F 24.1 °F 73% 30.19 in 10.0 mi NW 8.1 mph - N/A   Clear
6:53 AM 32.0 °F 24.2 °F 23.0 °F 69% 30.20 in 10.0 mi NW 9.2 mph - N/A   Clear
7:53 AM 34.0 °F 25.5 °F 21.9 °F 61% 30.22 in 10.0 mi NW 11.5 mph - N/A   Clear
8:53 AM 37.9 °F 28.2 °F 21.0 °F 51% 30.25 in 10.0 mi NW 18.4 mph 23.0 mph N/A   Clear
9:53 AM 42.1 °F 33.6 °F 21.0 °F 43% 30.26 in 10.0 mi NNW 18.4 mph 28.8 mph N/A   Clear
10:53 AM 45.0 °F 38.2 °F 21.9 °F 40% 30.26 in 10.0 mi WNW 15.0 mph 23.0 mph N/A   Clear
11:53 AM 48.0 °F - 21.0 °F 34% 30.25 in 10.0 mi WNW 18.4 mph 28.8 mph N/A   Clear
12:53 PM 50.0 °F - 21.0 °F 32% 30.23 in 10.0 mi WNW 11.5 mph 23.0 mph N/A   Clear
1:53 PM 54.0 °F - 19.9 °F 26% 30.20 in 10.0 mi WNW 21.9 mph 28.8 mph N/A   Clear
2:53 PM 55.9 °F - 19.0 °F 24% 30.18 in 10.0 mi WNW 23.0 mph 28.8 mph N/A   Clear
3:53 PM 55.9 °F - 19.9 °F 25% 30.17 in 10.0 mi NNW 23.0 mph 32.2 mph N/A   Clear
4:53 PM 54.0 °F - 19.0 °F 25% 30.17 in 10.0 mi WNW 21.9 mph 27.6 mph N/A   Clear
5:53 PM 53.1 °F - 19.0 °F 26% 30.19 in 10.0 mi NNW 17.3 mph 23.0 mph N/A   Clear
6:53 PM 50.0 °F - 19.0 °F 29% 30.21 in 10.0 mi NNW 11.5 mph - N/A   Clear
7:53 PM 46.0 °F 41.4 °F 18.0 °F 33% 30.24 in 10.0 mi NNW 9.2 mph - N/A   Clear
8:53 PM 45.0 °F 39.3 °F 19.0 °F 36% 30.27 in 10.0 mi NNW 11.5 mph 18.4 mph N/A   Clear
9:53 PM 42.1 °F 36.1 °F 23.0 °F 47% 30.30 in 10.0 mi North 10.4 mph - N/A   Clear
10:53 PM 39.9 °F 33.9 °F 21.9 °F 49% 30.34 in 10.0 mi NNW 9.2 mph - N/A   Clear
11:53 PM 39.0 °F 32.3 °F 21.9 °F 50% 30.36 in 10.0 mi North 10.4 mph - N/A   Clear